Index of /20260413/WXO-DD/model_gdps/15km/00/180
Name Last modified Size Description
Parent Directory -
20260413T00Z_MSC_GDPS_AbsoluteVorticity_IsbL-0200_LatLon0.15_PT180H.grib2 2026-04-13 04:55 1.5M
20260413T00Z_MSC_GDPS_AbsoluteVorticity_IsbL-0250_LatLon0.15_PT180H.grib2 2026-04-13 04:55 1.6M
20260413T00Z_MSC_GDPS_AbsoluteVorticity_IsbL-0500_LatLon0.15_PT180H.grib2 2026-04-13 04:55 1.5M
20260413T00Z_MSC_GDPS_AbsoluteVorticity_IsbL-0700_LatLon0.15_PT180H.grib2 2026-04-13 04:55 1.6M
20260413T00Z_MSC_GDPS_AbsoluteVorticity_IsbL-0850_LatLon0.15_PT180H.grib2 2026-04-13 04:55 1.6M
20260413T00Z_MSC_GDPS_AirTemp-Max_AGL-2m_LatLon0.15_PT180H.grib2 2026-04-13 04:55 747K
20260413T00Z_MSC_GDPS_AirTemp-Min_AGL-2m_LatLon0.15_PT180H.grib2 2026-04-13 04:55 788K
20260413T00Z_MSC_GDPS_AirTemp_AGL-120m_LatLon0.15_PT180H.grib2 2026-04-13 04:55 910K
20260413T00Z_MSC_GDPS_AirTemp_AGL-2m_LatLon0.15_PT180H.grib2 2026-04-13 04:55 1.0M
20260413T00Z_MSC_GDPS_AirTemp_AGL-40m_LatLon0.15_PT180H.grib2 2026-04-13 04:55 810K
20260413T00Z_MSC_GDPS_AirTemp_AGL-80m_LatLon0.15_PT180H.grib2 2026-04-13 04:55 918K
20260413T00Z_MSC_GDPS_AirTemp_IsbL-0001_LatLon0.15_PT180H.grib2 2026-04-13 04:55 708K
20260413T00Z_MSC_GDPS_AirTemp_IsbL-0005_LatLon0.15_PT180H.grib2 2026-04-13 04:55 750K
20260413T00Z_MSC_GDPS_AirTemp_IsbL-0010_LatLon0.15_PT180H.grib2 2026-04-13 04:55 760K
20260413T00Z_MSC_GDPS_AirTemp_IsbL-0020_LatLon0.15_PT180H.grib2 2026-04-13 04:55 706K
20260413T00Z_MSC_GDPS_AirTemp_IsbL-0030_LatLon0.15_PT180H.grib2 2026-04-13 04:55 760K
20260413T00Z_MSC_GDPS_AirTemp_IsbL-0050_LatLon0.15_PT180H.grib2 2026-04-13 04:55 818K
20260413T00Z_MSC_GDPS_AirTemp_IsbL-0100_LatLon0.15_PT180H.grib2 2026-04-13 04:55 957K
20260413T00Z_MSC_GDPS_AirTemp_IsbL-0150_LatLon0.15_PT180H.grib2 2026-04-13 04:55 1.0M
20260413T00Z_MSC_GDPS_AirTemp_IsbL-0175_LatLon0.15_PT180H.grib2 2026-04-13 04:55 971K
20260413T00Z_MSC_GDPS_AirTemp_IsbL-0200_LatLon0.15_PT180H.grib2 2026-04-13 04:55 1.0M
20260413T00Z_MSC_GDPS_AirTemp_IsbL-0225_LatLon0.15_PT180H.grib2 2026-04-13 04:55 1.0M
20260413T00Z_MSC_GDPS_AirTemp_IsbL-0250_LatLon0.15_PT180H.grib2 2026-04-13 04:55 1.0M
20260413T00Z_MSC_GDPS_AirTemp_IsbL-0275_LatLon0.15_PT180H.grib2 2026-04-13 04:55 1.0M
20260413T00Z_MSC_GDPS_AirTemp_IsbL-0300_LatLon0.15_PT180H.grib2 2026-04-13 04:55 1.0M
20260413T00Z_MSC_GDPS_AirTemp_IsbL-0350_LatLon0.15_PT180H.grib2 2026-04-13 04:55 935K
20260413T00Z_MSC_GDPS_AirTemp_IsbL-0400_LatLon0.15_PT180H.grib2 2026-04-13 04:55 944K
20260413T00Z_MSC_GDPS_AirTemp_IsbL-0450_LatLon0.15_PT180H.grib2 2026-04-13 04:55 966K
20260413T00Z_MSC_GDPS_AirTemp_IsbL-0500_LatLon0.15_PT180H.grib2 2026-04-13 04:55 1.0M
20260413T00Z_MSC_GDPS_AirTemp_IsbL-0550_LatLon0.15_PT180H.grib2 2026-04-13 04:55 1.0M
20260413T00Z_MSC_GDPS_AirTemp_IsbL-0600_LatLon0.15_PT180H.grib2 2026-04-13 04:55 899K
20260413T00Z_MSC_GDPS_AirTemp_IsbL-0650_LatLon0.15_PT180H.grib2 2026-04-13 04:55 929K
20260413T00Z_MSC_GDPS_AirTemp_IsbL-0700_LatLon0.15_PT180H.grib2 2026-04-13 04:55 964K
20260413T00Z_MSC_GDPS_AirTemp_IsbL-0750_LatLon0.15_PT180H.grib2 2026-04-13 04:55 1.0M
20260413T00Z_MSC_GDPS_AirTemp_IsbL-0800_LatLon0.15_PT180H.grib2 2026-04-13 04:55 1.1M
20260413T00Z_MSC_GDPS_AirTemp_IsbL-0850_LatLon0.15_PT180H.grib2 2026-04-13 04:55 1.1M
20260413T00Z_MSC_GDPS_AirTemp_IsbL-0875_LatLon0.15_PT180H.grib2 2026-04-13 04:55 1.2M
20260413T00Z_MSC_GDPS_AirTemp_IsbL-0900_LatLon0.15_PT180H.grib2 2026-04-13 04:55 1.1M
20260413T00Z_MSC_GDPS_AirTemp_IsbL-0925_LatLon0.15_PT180H.grib2 2026-04-13 04:55 1.1M
20260413T00Z_MSC_GDPS_AirTemp_IsbL-0950_LatLon0.15_PT180H.grib2 2026-04-13 04:55 1.1M
20260413T00Z_MSC_GDPS_AirTemp_IsbL-0970_LatLon0.15_PT180H.grib2 2026-04-13 04:55 1.1M
20260413T00Z_MSC_GDPS_AirTemp_IsbL-0985_LatLon0.15_PT180H.grib2 2026-04-13 04:55 1.1M
20260413T00Z_MSC_GDPS_AirTemp_IsbL-1000_LatLon0.15_PT180H.grib2 2026-04-13 04:55 1.1M
20260413T00Z_MSC_GDPS_AirTemp_IsbL-1015_LatLon0.15_PT180H.grib2 2026-04-13 04:55 1.1M
20260413T00Z_MSC_GDPS_Albedo_Sfc_LatLon0.15_PT180H.grib2 2026-04-13 04:55 245K
20260413T00Z_MSC_GDPS_CAPE_Sfc_LatLon0.15_PT180H.grib2 2026-04-13 04:55 3.8M
20260413T00Z_MSC_GDPS_CIN_Sfc_LatLon0.15_PT180H.grib2 2026-04-13 04:55 2.9M
20260413T00Z_MSC_GDPS_CloudWater_EAtm_LatLon0.15_PT180H.grib2 2026-04-13 04:55 535K
20260413T00Z_MSC_GDPS_ConvectivePrecip-Accum_Sfc_LatLon0.15_PT180H.grib2 2026-04-13 04:55 3.7M
20260413T00Z_MSC_GDPS_DewPointDepression_AGL-2m_LatLon0.15_PT180H.grib2 2026-04-13 04:55 751K
20260413T00Z_MSC_GDPS_DewPointDepression_IsbL-0010_LatLon0.15_PT180H.grib2 2026-04-13 04:55 9.8K
20260413T00Z_MSC_GDPS_DewPointDepression_IsbL-0020_LatLon0.15_PT180H.grib2 2026-04-13 04:55 62K
20260413T00Z_MSC_GDPS_DewPointDepression_IsbL-0030_LatLon0.15_PT180H.grib2 2026-04-13 04:55 72K
20260413T00Z_MSC_GDPS_DewPointDepression_IsbL-0050_LatLon0.15_PT180H.grib2 2026-04-13 04:55 329K
20260413T00Z_MSC_GDPS_DewPointDepression_IsbL-0100_LatLon0.15_PT180H.grib2 2026-04-13 04:55 376K
20260413T00Z_MSC_GDPS_DewPointDepression_IsbL-0150_LatLon0.15_PT180H.grib2 2026-04-13 04:55 456K
20260413T00Z_MSC_GDPS_DewPointDepression_IsbL-0175_LatLon0.15_PT180H.grib2 2026-04-13 04:55 544K
20260413T00Z_MSC_GDPS_DewPointDepression_IsbL-0200_LatLon0.15_PT180H.grib2 2026-04-13 04:55 637K
20260413T00Z_MSC_GDPS_DewPointDepression_IsbL-0225_LatLon0.15_PT180H.grib2 2026-04-13 04:55 765K
20260413T00Z_MSC_GDPS_DewPointDepression_IsbL-0250_LatLon0.15_PT180H.grib2 2026-04-13 04:55 873K
20260413T00Z_MSC_GDPS_DewPointDepression_IsbL-0275_LatLon0.15_PT180H.grib2 2026-04-13 04:55 885K
20260413T00Z_MSC_GDPS_DewPointDepression_IsbL-0300_LatLon0.15_PT180H.grib2 2026-04-13 04:55 926K
20260413T00Z_MSC_GDPS_DewPointDepression_IsbL-0350_LatLon0.15_PT180H.grib2 2026-04-13 04:55 963K
20260413T00Z_MSC_GDPS_DewPointDepression_IsbL-0400_LatLon0.15_PT180H.grib2 2026-04-13 04:55 1.0M
20260413T00Z_MSC_GDPS_DewPointDepression_IsbL-0450_LatLon0.15_PT180H.grib2 2026-04-13 04:55 1.0M
20260413T00Z_MSC_GDPS_DewPointDepression_IsbL-0500_LatLon0.15_PT180H.grib2 2026-04-13 04:55 1.0M
20260413T00Z_MSC_GDPS_DewPointDepression_IsbL-0550_LatLon0.15_PT180H.grib2 2026-04-13 04:55 1.1M
20260413T00Z_MSC_GDPS_DewPointDepression_IsbL-0600_LatLon0.15_PT180H.grib2 2026-04-13 04:55 1.1M
20260413T00Z_MSC_GDPS_DewPointDepression_IsbL-0650_LatLon0.15_PT180H.grib2 2026-04-13 04:55 1.1M
20260413T00Z_MSC_GDPS_DewPointDepression_IsbL-0700_LatLon0.15_PT180H.grib2 2026-04-13 04:55 1.1M
20260413T00Z_MSC_GDPS_DewPointDepression_IsbL-0750_LatLon0.15_PT180H.grib2 2026-04-13 04:55 1.1M
20260413T00Z_MSC_GDPS_DewPointDepression_IsbL-0800_LatLon0.15_PT180H.grib2 2026-04-13 04:55 1.2M
20260413T00Z_MSC_GDPS_DewPointDepression_IsbL-0850_LatLon0.15_PT180H.grib2 2026-04-13 04:55 1.2M
20260413T00Z_MSC_GDPS_DewPointDepression_IsbL-0875_LatLon0.15_PT180H.grib2 2026-04-13 04:55 1.1M
20260413T00Z_MSC_GDPS_DewPointDepression_IsbL-0900_LatLon0.15_PT180H.grib2 2026-04-13 04:55 1.1M
20260413T00Z_MSC_GDPS_DewPointDepression_IsbL-0925_LatLon0.15_PT180H.grib2 2026-04-13 04:55 1.0M
20260413T00Z_MSC_GDPS_DewPointDepression_IsbL-0950_LatLon0.15_PT180H.grib2 2026-04-13 04:55 1.0M
20260413T00Z_MSC_GDPS_DewPointDepression_IsbL-0970_LatLon0.15_PT180H.grib2 2026-04-13 04:55 1.0M
20260413T00Z_MSC_GDPS_DewPointDepression_IsbL-0985_LatLon0.15_PT180H.grib2 2026-04-13 04:55 1.0M
20260413T00Z_MSC_GDPS_DewPointDepression_IsbL-1000_LatLon0.15_PT180H.grib2 2026-04-13 04:55 964K
20260413T00Z_MSC_GDPS_DewPointDepression_IsbL-1015_LatLon0.15_PT180H.grib2 2026-04-13 04:55 906K
20260413T00Z_MSC_GDPS_DewPoint_AGL-2m_LatLon0.15_PT180H.grib2 2026-04-13 04:55 616K
20260413T00Z_MSC_GDPS_DownwardLongwaveRadiationFlux-Accum_Sfc_LatLon0.15_PT180H.grib2 2026-04-13 04:55 649K
20260413T00Z_MSC_GDPS_DownwardShortwaveRadiationFlux-Accum_NTAtm_LatLon0.15_PT180H.grib2 2026-04-13 04:55 274K
20260413T00Z_MSC_GDPS_DownwardShortwaveRadiationFlux-Accum_Sfc_LatLon0.15_PT180H.grib2 2026-04-13 04:55 856K
20260413T00Z_MSC_GDPS_FreezingRain-Accum12h_Sfc_LatLon0.15_PT180H.grib2 2026-04-13 04:55 91K
20260413T00Z_MSC_GDPS_FreezingRain-Accum24h_Sfc_LatLon0.15_PT180H.grib2 2026-04-13 04:55 128K
20260413T00Z_MSC_GDPS_FreezingRain-Accum6h_Sfc_LatLon0.15_PT180H.grib2 2026-04-13 04:55 64K
20260413T00Z_MSC_GDPS_FreezingRain-Accum_Sfc_LatLon0.15_PT180H.grib2 2026-04-13 04:55 298K
20260413T00Z_MSC_GDPS_GeopotentialHeight_IsbL-0001_LatLon0.15_PT180H.grib2 2026-04-13 04:55 391K
20260413T00Z_MSC_GDPS_GeopotentialHeight_IsbL-0005_LatLon0.15_PT180H.grib2 2026-04-13 04:55 509K
20260413T00Z_MSC_GDPS_GeopotentialHeight_IsbL-0010_LatLon0.15_PT180H.grib2 2026-04-13 04:55 437K
20260413T00Z_MSC_GDPS_GeopotentialHeight_IsbL-0020_LatLon0.15_PT180H.grib2 2026-04-13 04:55 585K
20260413T00Z_MSC_GDPS_GeopotentialHeight_IsbL-0030_LatLon0.15_PT180H.grib2 2026-04-13 04:55 591K
20260413T00Z_MSC_GDPS_GeopotentialHeight_IsbL-0050_LatLon0.15_PT180H.grib2 2026-04-13 04:55 589K
20260413T00Z_MSC_GDPS_GeopotentialHeight_IsbL-0100_LatLon0.15_PT180H.grib2 2026-04-13 04:55 626K
20260413T00Z_MSC_GDPS_GeopotentialHeight_IsbL-0150_LatLon0.15_PT180H.grib2 2026-04-13 04:55 640K
20260413T00Z_MSC_GDPS_GeopotentialHeight_IsbL-0175_LatLon0.15_PT180H.grib2 2026-04-13 04:55 644K
20260413T00Z_MSC_GDPS_GeopotentialHeight_IsbL-0200_LatLon0.15_PT180H.grib2 2026-04-13 04:55 648K
20260413T00Z_MSC_GDPS_GeopotentialHeight_IsbL-0225_LatLon0.15_PT180H.grib2 2026-04-13 04:55 650K
20260413T00Z_MSC_GDPS_GeopotentialHeight_IsbL-0250_LatLon0.15_PT180H.grib2 2026-04-13 04:55 651K
20260413T00Z_MSC_GDPS_GeopotentialHeight_IsbL-0275_LatLon0.15_PT180H.grib2 2026-04-13 04:55 649K
20260413T00Z_MSC_GDPS_GeopotentialHeight_IsbL-0300_LatLon0.15_PT180H.grib2 2026-04-13 04:55 641K
20260413T00Z_MSC_GDPS_GeopotentialHeight_IsbL-0350_LatLon0.15_PT180H.grib2 2026-04-13 04:55 636K
20260413T00Z_MSC_GDPS_GeopotentialHeight_IsbL-0400_LatLon0.15_PT180H.grib2 2026-04-13 04:55 629K
20260413T00Z_MSC_GDPS_GeopotentialHeight_IsbL-0450_LatLon0.15_PT180H.grib2 2026-04-13 04:55 549K
20260413T00Z_MSC_GDPS_GeopotentialHeight_IsbL-0500_LatLon0.15_PT180H.grib2 2026-04-13 04:55 538K
20260413T00Z_MSC_GDPS_GeopotentialHeight_IsbL-0550_LatLon0.15_PT180H.grib2 2026-04-13 04:55 529K
20260413T00Z_MSC_GDPS_GeopotentialHeight_IsbL-0600_LatLon0.15_PT180H.grib2 2026-04-13 04:55 693K
20260413T00Z_MSC_GDPS_GeopotentialHeight_IsbL-0650_LatLon0.15_PT180H.grib2 2026-04-13 04:55 690K
20260413T00Z_MSC_GDPS_GeopotentialHeight_IsbL-0700_LatLon0.15_PT180H.grib2 2026-04-13 04:55 687K
20260413T00Z_MSC_GDPS_GeopotentialHeight_IsbL-0750_LatLon0.15_PT180H.grib2 2026-04-13 04:55 691K
20260413T00Z_MSC_GDPS_GeopotentialHeight_IsbL-0800_LatLon0.15_PT180H.grib2 2026-04-13 04:55 705K
20260413T00Z_MSC_GDPS_GeopotentialHeight_IsbL-0850_LatLon0.15_PT180H.grib2 2026-04-13 04:55 711K
20260413T00Z_MSC_GDPS_GeopotentialHeight_IsbL-0875_LatLon0.15_PT180H.grib2 2026-04-13 04:55 717K
20260413T00Z_MSC_GDPS_GeopotentialHeight_IsbL-0900_LatLon0.15_PT180H.grib2 2026-04-13 04:55 726K
20260413T00Z_MSC_GDPS_GeopotentialHeight_IsbL-0925_LatLon0.15_PT180H.grib2 2026-04-13 04:55 734K
20260413T00Z_MSC_GDPS_GeopotentialHeight_IsbL-0950_LatLon0.15_PT180H.grib2 2026-04-13 04:55 741K
20260413T00Z_MSC_GDPS_GeopotentialHeight_IsbL-0970_LatLon0.15_PT180H.grib2 2026-04-13 04:55 752K
20260413T00Z_MSC_GDPS_GeopotentialHeight_IsbL-0985_LatLon0.15_PT180H.grib2 2026-04-13 04:55 768K
20260413T00Z_MSC_GDPS_GeopotentialHeight_IsbL-1000_LatLon0.15_PT180H.grib2 2026-04-13 04:55 789K
20260413T00Z_MSC_GDPS_GeopotentialHeight_IsbL-1015_LatLon0.15_PT180H.grib2 2026-04-13 04:55 812K
20260413T00Z_MSC_GDPS_Humidex_Sfc_LatLon0.15_PT180H.grib2 2026-04-13 04:55 5.3M
20260413T00Z_MSC_GDPS_IcePellets-Accum12h_Sfc_LatLon0.15_PT180H.grib2 2026-04-13 04:55 46K
20260413T00Z_MSC_GDPS_IcePellets-Accum24h_Sfc_LatLon0.15_PT180H.grib2 2026-04-13 04:55 77K
20260413T00Z_MSC_GDPS_IcePellets-Accum6h_Sfc_LatLon0.15_PT180H.grib2 2026-04-13 04:55 27K
20260413T00Z_MSC_GDPS_IcePellets-Accum_Sfc_LatLon0.15_PT180H.grib2 2026-04-13 04:55 198K
20260413T00Z_MSC_GDPS_KIndex_Sfc_LatLon0.15_PT180H.grib2 2026-04-13 04:55 6.5M
20260413T00Z_MSC_GDPS_LatentHeatNetFlux_Sfc_LatLon0.15_PT180H.grib2 2026-04-13 04:55 543K
20260413T00Z_MSC_GDPS_LiftedIndex-MU-VT_IsbL-0500_LatLon0.15_PT180H.grib2 2026-04-13 04:55 5.4M
20260413T00Z_MSC_GDPS_NetLongwaveRadiationFlux-Accum_Sfc_LatLon0.15_PT180H.grib2 2026-04-13 04:55 867K
20260413T00Z_MSC_GDPS_NetShortwaveRadiationFlux-Accum_Sfc_LatLon0.15_PT180H.grib2 2026-04-13 04:55 859K
20260413T00Z_MSC_GDPS_O3MixingRatio_LatLon0.15_PT180H.grib2 2026-04-13 05:08 2.2M
20260413T00Z_MSC_GDPS_O3_EAtm_LatLon0.15_PT180H.grib2 2026-04-13 05:08 2.4M
20260413T00Z_MSC_GDPS_PlanetaryBoundaryLayerHeight_Sfc_LatLon0.15_PT180H.grib2 2026-04-13 04:55 2.5M
20260413T00Z_MSC_GDPS_Precip-Accum12h_Sfc_LatLon0.15_PT180H.grib2 2026-04-13 04:55 4.3M
20260413T00Z_MSC_GDPS_Precip-Accum24h_Sfc_LatLon0.15_PT180H.grib2 2026-04-13 04:55 4.5M
20260413T00Z_MSC_GDPS_Precip-Accum6h_Sfc_LatLon0.15_PT180H.grib2 2026-04-13 04:55 3.9M
20260413T00Z_MSC_GDPS_Precip-Accum_Sfc_LatLon0.15_PT180H.grib2 2026-04-13 04:55 5.3M
20260413T00Z_MSC_GDPS_PrecipRate_Sfc_LatLon0.15_PT180H.grib2 2026-04-13 04:55 3.0M
20260413T00Z_MSC_GDPS_PrecipType-Instant_Sfc_LatLon0.15_PT180H.grib2 2026-04-13 04:55 1.6M
20260413T00Z_MSC_GDPS_Pressure_MSL_LatLon0.15_PT180H.grib2 2026-04-13 04:55 724K
20260413T00Z_MSC_GDPS_Pressure_PVU-1.5_LatLon0.15_PT180H.grib2 2026-04-13 04:55 5.8M
20260413T00Z_MSC_GDPS_Pressure_PVU-1_LatLon0.15_PT180H.grib2 2026-04-13 04:55 6.0M
20260413T00Z_MSC_GDPS_Pressure_PVU-2_LatLon0.15_PT180H.grib2 2026-04-13 04:55 5.6M
20260413T00Z_MSC_GDPS_Pressure_Sfc_LatLon0.15_PT180H.grib2 2026-04-13 04:55 1.1M
20260413T00Z_MSC_GDPS_RadiativeTemp_Sfc_LatLon0.15_PT180H.grib2 2026-04-13 04:55 682K
20260413T00Z_MSC_GDPS_Rain-Accum12h_Sfc_LatLon0.15_PT180H.grib2 2026-04-13 04:55 2.8M
20260413T00Z_MSC_GDPS_Rain-Accum24h_Sfc_LatLon0.15_PT180H.grib2 2026-04-13 04:55 3.1M
20260413T00Z_MSC_GDPS_Rain-Accum6h_Sfc_LatLon0.15_PT180H.grib2 2026-04-13 04:55 2.4M
20260413T00Z_MSC_GDPS_Rain-Accum_Sfc_LatLon0.15_PT180H.grib2 2026-04-13 04:55 4.0M
20260413T00Z_MSC_GDPS_RelativeHumidity_AGL-2m_LatLon0.15_PT180H.grib2 2026-04-13 04:55 1.0M
20260413T00Z_MSC_GDPS_RelativeHumidity_IsbL-0010_LatLon0.15_PT180H.grib2 2026-04-13 04:55 239K
20260413T00Z_MSC_GDPS_RelativeHumidity_IsbL-0020_LatLon0.15_PT180H.grib2 2026-04-13 04:55 360K
20260413T00Z_MSC_GDPS_RelativeHumidity_IsbL-0030_LatLon0.15_PT180H.grib2 2026-04-13 04:55 416K
20260413T00Z_MSC_GDPS_RelativeHumidity_IsbL-0050_LatLon0.15_PT180H.grib2 2026-04-13 04:55 408K
20260413T00Z_MSC_GDPS_RelativeHumidity_IsbL-0100_LatLon0.15_PT180H.grib2 2026-04-13 04:55 477K
20260413T00Z_MSC_GDPS_RelativeHumidity_IsbL-0150_LatLon0.15_PT180H.grib2 2026-04-13 04:55 651K
20260413T00Z_MSC_GDPS_RelativeHumidity_IsbL-0175_LatLon0.15_PT180H.grib2 2026-04-13 04:55 793K
20260413T00Z_MSC_GDPS_RelativeHumidity_IsbL-0200_LatLon0.15_PT180H.grib2 2026-04-13 04:55 700K
20260413T00Z_MSC_GDPS_RelativeHumidity_IsbL-0225_LatLon0.15_PT180H.grib2 2026-04-13 04:55 793K
20260413T00Z_MSC_GDPS_RelativeHumidity_IsbL-0250_LatLon0.15_PT180H.grib2 2026-04-13 04:55 883K
20260413T00Z_MSC_GDPS_RelativeHumidity_IsbL-0275_LatLon0.15_PT180H.grib2 2026-04-13 04:55 906K
20260413T00Z_MSC_GDPS_RelativeHumidity_IsbL-0300_LatLon0.15_PT180H.grib2 2026-04-13 04:55 950K
20260413T00Z_MSC_GDPS_RelativeHumidity_IsbL-0350_LatLon0.15_PT180H.grib2 2026-04-13 04:55 968K
20260413T00Z_MSC_GDPS_RelativeHumidity_IsbL-0400_LatLon0.15_PT180H.grib2 2026-04-13 04:55 1.0M
20260413T00Z_MSC_GDPS_RelativeHumidity_IsbL-0450_LatLon0.15_PT180H.grib2 2026-04-13 04:55 1.0M
20260413T00Z_MSC_GDPS_RelativeHumidity_IsbL-0500_LatLon0.15_PT180H.grib2 2026-04-13 04:55 1.0M
20260413T00Z_MSC_GDPS_RelativeHumidity_IsbL-0550_LatLon0.15_PT180H.grib2 2026-04-13 04:55 1.0M
20260413T00Z_MSC_GDPS_RelativeHumidity_IsbL-0600_LatLon0.15_PT180H.grib2 2026-04-13 04:55 1.1M
20260413T00Z_MSC_GDPS_RelativeHumidity_IsbL-0650_LatLon0.15_PT180H.grib2 2026-04-13 04:55 1.1M
20260413T00Z_MSC_GDPS_RelativeHumidity_IsbL-0700_LatLon0.15_PT180H.grib2 2026-04-13 04:55 1.1M
20260413T00Z_MSC_GDPS_RelativeHumidity_IsbL-0750_LatLon0.15_PT180H.grib2 2026-04-13 04:55 1.1M
20260413T00Z_MSC_GDPS_RelativeHumidity_IsbL-0800_LatLon0.15_PT180H.grib2 2026-04-13 04:55 1.2M
20260413T00Z_MSC_GDPS_RelativeHumidity_IsbL-0850_LatLon0.15_PT180H.grib2 2026-04-13 04:55 1.3M
20260413T00Z_MSC_GDPS_RelativeHumidity_IsbL-0875_LatLon0.15_PT180H.grib2 2026-04-13 04:55 1.3M
20260413T00Z_MSC_GDPS_RelativeHumidity_IsbL-0900_LatLon0.15_PT180H.grib2 2026-04-13 04:55 1.2M
20260413T00Z_MSC_GDPS_RelativeHumidity_IsbL-0925_LatLon0.15_PT180H.grib2 2026-04-13 04:55 1.2M
20260413T00Z_MSC_GDPS_RelativeHumidity_IsbL-0950_LatLon0.15_PT180H.grib2 2026-04-13 04:55 1.2M
20260413T00Z_MSC_GDPS_RelativeHumidity_IsbL-0970_LatLon0.15_PT180H.grib2 2026-04-13 04:55 1.2M
20260413T00Z_MSC_GDPS_RelativeHumidity_IsbL-0985_LatLon0.15_PT180H.grib2 2026-04-13 04:55 1.1M
20260413T00Z_MSC_GDPS_RelativeHumidity_IsbL-1000_LatLon0.15_PT180H.grib2 2026-04-13 04:55 1.1M
20260413T00Z_MSC_GDPS_RelativeHumidity_IsbL-1015_LatLon0.15_PT180H.grib2 2026-04-13 04:55 1.0M
20260413T00Z_MSC_GDPS_RelativeVorticity_IsbL-0200_LatLon0.15_PT180H.grib2 2026-04-13 04:55 1.5M
20260413T00Z_MSC_GDPS_RelativeVorticity_IsbL-0250_LatLon0.15_PT180H.grib2 2026-04-13 04:55 1.6M
20260413T00Z_MSC_GDPS_RelativeVorticity_IsbL-0500_LatLon0.15_PT180H.grib2 2026-04-13 04:55 1.5M
20260413T00Z_MSC_GDPS_RelativeVorticity_IsbL-0700_LatLon0.15_PT180H.grib2 2026-04-13 04:55 1.6M
20260413T00Z_MSC_GDPS_RelativeVorticity_IsbL-0850_LatLon0.15_PT180H.grib2 2026-04-13 04:55 1.6M
20260413T00Z_MSC_GDPS_Runoff-Accum_Sfc_LatLon0.15_PT180H.grib2 2026-04-13 04:55 102K
20260413T00Z_MSC_GDPS_SensibleHeatNetFlux_Sfc_LatLon0.15_PT180H.grib2 2026-04-13 04:55 641K
20260413T00Z_MSC_GDPS_ShowalterIndex_IsbL-0500_LatLon0.15_PT180H.grib2 2026-04-13 04:55 6.2M
20260413T00Z_MSC_GDPS_Snow-Accum12h_Sfc_LatLon0.15_PT180H.grib2 2026-04-13 04:55 1.6M
20260413T00Z_MSC_GDPS_Snow-Accum24h_Sfc_LatLon0.15_PT180H.grib2 2026-04-13 04:55 1.7M
20260413T00Z_MSC_GDPS_Snow-Accum6h_Sfc_LatLon0.15_PT180H.grib2 2026-04-13 04:55 1.6M
20260413T00Z_MSC_GDPS_Snow-Accum_Sfc_LatLon0.15_PT180H.grib2 2026-04-13 04:55 2.1M
20260413T00Z_MSC_GDPS_SnowDensity_Sfc_LatLon0.15_PT180H.grib2 2026-04-13 04:55 273K
20260413T00Z_MSC_GDPS_SnowDepth_Sfc_LatLon0.15_PT180H.grib2 2026-04-13 04:55 1.8M
20260413T00Z_MSC_GDPS_SoilTemp_DBS-0to10cm_LatLon0.15_PT180H.grib2 2026-04-13 04:55 513K
20260413T00Z_MSC_GDPS_SoilTemp_Sfc_LatLon0.15_PT180H.grib2 2026-04-13 04:55 593K
20260413T00Z_MSC_GDPS_SoilVolumetricIceContent_Sfc_LatLon0.15_PT180H.grib2 2026-04-13 04:55 223K
20260413T00Z_MSC_GDPS_SoilVolumetricWaterContent_DBS-0to10cm_LatLon0.15_PT180H.grib2 2026-04-13 04:55 552K
20260413T00Z_MSC_GDPS_SoilVolumetricWaterContent_DBS-0to1cm_LatLon0.15_PT180H.grib2 2026-04-13 04:55 650K
20260413T00Z_MSC_GDPS_SpecificHumidity_AGL-120m_LatLon0.15_PT180H.grib2 2026-04-13 04:55 1.1M
20260413T00Z_MSC_GDPS_SpecificHumidity_AGL-2m_LatLon0.15_PT180H.grib2 2026-04-13 04:55 1.2M
20260413T00Z_MSC_GDPS_SpecificHumidity_AGL-40m_LatLon0.15_PT180H.grib2 2026-04-13 04:55 1.1M
20260413T00Z_MSC_GDPS_SpecificHumidity_AGL-80m_LatLon0.15_PT180H.grib2 2026-04-13 04:55 1.1M
20260413T00Z_MSC_GDPS_SpecificHumidity_IsbL-0001_LatLon0.15_PT180H.grib2 2026-04-13 04:55 1.1M
20260413T00Z_MSC_GDPS_SpecificHumidity_IsbL-0005_LatLon0.15_PT180H.grib2 2026-04-13 04:55 1.0M
20260413T00Z_MSC_GDPS_SpecificHumidity_IsbL-0010_LatLon0.15_PT180H.grib2 2026-04-13 04:55 1.1M
20260413T00Z_MSC_GDPS_SpecificHumidity_IsbL-0020_LatLon0.15_PT180H.grib2 2026-04-13 04:55 1.5M
20260413T00Z_MSC_GDPS_SpecificHumidity_IsbL-0030_LatLon0.15_PT180H.grib2 2026-04-13 04:55 1.5M
20260413T00Z_MSC_GDPS_SpecificHumidity_IsbL-0050_LatLon0.15_PT180H.grib2 2026-04-13 04:55 1.2M
20260413T00Z_MSC_GDPS_SpecificHumidity_IsbL-0100_LatLon0.15_PT180H.grib2 2026-04-13 04:55 1.3M
20260413T00Z_MSC_GDPS_SpecificHumidity_IsbL-0150_LatLon0.15_PT180H.grib2 2026-04-13 04:55 1.2M
20260413T00Z_MSC_GDPS_SpecificHumidity_IsbL-0175_LatLon0.15_PT180H.grib2 2026-04-13 04:55 1.3M
20260413T00Z_MSC_GDPS_SpecificHumidity_IsbL-0200_LatLon0.15_PT180H.grib2 2026-04-13 04:55 1.3M
20260413T00Z_MSC_GDPS_SpecificHumidity_IsbL-0225_LatLon0.15_PT180H.grib2 2026-04-13 04:55 1.3M
20260413T00Z_MSC_GDPS_SpecificHumidity_IsbL-0250_LatLon0.15_PT180H.grib2 2026-04-13 04:55 1.4M
20260413T00Z_MSC_GDPS_SpecificHumidity_IsbL-0275_LatLon0.15_PT180H.grib2 2026-04-13 04:55 1.3M
20260413T00Z_MSC_GDPS_SpecificHumidity_IsbL-0300_LatLon0.15_PT180H.grib2 2026-04-13 04:55 1.2M
20260413T00Z_MSC_GDPS_SpecificHumidity_IsbL-0350_LatLon0.15_PT180H.grib2 2026-04-13 04:55 1.5M
20260413T00Z_MSC_GDPS_SpecificHumidity_IsbL-0400_LatLon0.15_PT180H.grib2 2026-04-13 04:55 1.5M
20260413T00Z_MSC_GDPS_SpecificHumidity_IsbL-0450_LatLon0.15_PT180H.grib2 2026-04-13 04:55 1.3M
20260413T00Z_MSC_GDPS_SpecificHumidity_IsbL-0500_LatLon0.15_PT180H.grib2 2026-04-13 04:55 1.5M
20260413T00Z_MSC_GDPS_SpecificHumidity_IsbL-0550_LatLon0.15_PT180H.grib2 2026-04-13 04:55 1.6M
20260413T00Z_MSC_GDPS_SpecificHumidity_IsbL-0600_LatLon0.15_PT180H.grib2 2026-04-13 04:55 1.4M
20260413T00Z_MSC_GDPS_SpecificHumidity_IsbL-0650_LatLon0.15_PT180H.grib2 2026-04-13 04:55 1.5M
20260413T00Z_MSC_GDPS_SpecificHumidity_IsbL-0700_LatLon0.15_PT180H.grib2 2026-04-13 04:55 1.6M
20260413T00Z_MSC_GDPS_SpecificHumidity_IsbL-0750_LatLon0.15_PT180H.grib2 2026-04-13 04:55 1.7M
20260413T00Z_MSC_GDPS_SpecificHumidity_IsbL-0800_LatLon0.15_PT180H.grib2 2026-04-13 04:55 1.9M
20260413T00Z_MSC_GDPS_SpecificHumidity_IsbL-0850_LatLon0.15_PT180H.grib2 2026-04-13 04:55 1.9M
20260413T00Z_MSC_GDPS_SpecificHumidity_IsbL-0875_LatLon0.15_PT180H.grib2 2026-04-13 04:55 1.9M
20260413T00Z_MSC_GDPS_SpecificHumidity_IsbL-0900_LatLon0.15_PT180H.grib2 2026-04-13 04:55 1.6M
20260413T00Z_MSC_GDPS_SpecificHumidity_IsbL-0925_LatLon0.15_PT180H.grib2 2026-04-13 04:55 1.6M
20260413T00Z_MSC_GDPS_SpecificHumidity_IsbL-0950_LatLon0.15_PT180H.grib2 2026-04-13 04:55 1.5M
20260413T00Z_MSC_GDPS_SpecificHumidity_IsbL-0970_LatLon0.15_PT180H.grib2 2026-04-13 04:55 1.5M
20260413T00Z_MSC_GDPS_SpecificHumidity_IsbL-0985_LatLon0.15_PT180H.grib2 2026-04-13 04:55 1.5M
20260413T00Z_MSC_GDPS_SpecificHumidity_IsbL-1000_LatLon0.15_PT180H.grib2 2026-04-13 04:55 1.5M
20260413T00Z_MSC_GDPS_SpecificHumidity_IsbL-1015_LatLon0.15_PT180H.grib2 2026-04-13 04:55 1.4M
20260413T00Z_MSC_GDPS_SpecificHumidity_Sfc_LatLon0.15_PT180H.grib2 2026-04-13 04:55 585K
20260413T00Z_MSC_GDPS_Thickness_IsbL-0850to0700_LatLon0.15_PT180H.grib2 2026-04-13 04:55 474K
20260413T00Z_MSC_GDPS_Thickness_IsbL-1000to0500_LatLon0.15_PT180H.grib2 2026-04-13 04:55 379K
20260413T00Z_MSC_GDPS_Thickness_IsbL-1000to0850_LatLon0.15_PT180H.grib2 2026-04-13 04:55 492K
20260413T00Z_MSC_GDPS_TotalCloudCover_Sfc_LatLon0.15_PT180H.grib2 2026-04-13 04:55 824K
20260413T00Z_MSC_GDPS_TotalTotalsIndex_Sfc_LatLon0.15_PT180H.grib2 2026-04-13 04:55 6.2M
20260413T00Z_MSC_GDPS_UVIndex-ClearSky_Sfc_LatLon0.15_PT180H.grib2 2026-04-13 05:08 1.0M
20260413T00Z_MSC_GDPS_UVIndex_Sfc_LatLon0.15_PT180H.grib2 2026-04-13 05:08 1.4M
20260413T00Z_MSC_GDPS_UpwardLongwaveRadiationFlux_NTAtm_LatLon0.15_PT180H.grib2 2026-04-13 04:55 852K
20260413T00Z_MSC_GDPS_VerticalVelocity_IsbL-0200_LatLon0.15_PT180H.grib2 2026-04-13 04:55 931K
20260413T00Z_MSC_GDPS_VerticalVelocity_IsbL-0250_LatLon0.15_PT180H.grib2 2026-04-13 04:55 1.1M
20260413T00Z_MSC_GDPS_VerticalVelocity_IsbL-0500_LatLon0.15_PT180H.grib2 2026-04-13 04:55 1.3M
20260413T00Z_MSC_GDPS_VerticalVelocity_IsbL-0600_LatLon0.15_PT180H.grib2 2026-04-13 04:55 1.3M
20260413T00Z_MSC_GDPS_VerticalVelocity_IsbL-0700_LatLon0.15_PT180H.grib2 2026-04-13 04:55 1.1M
20260413T00Z_MSC_GDPS_VerticalVelocity_IsbL-0850_LatLon0.15_PT180H.grib2 2026-04-13 04:55 1.6M
20260413T00Z_MSC_GDPS_WindChill_Sfc_LatLon0.15_PT180H.grib2 2026-04-13 04:55 5.3M
20260413T00Z_MSC_GDPS_WindDir_AGL-10m_LatLon0.15_PT180H.grib2 2026-04-13 04:55 1.3M
20260413T00Z_MSC_GDPS_WindDir_AGL-120m_LatLon0.15_PT180H.grib2 2026-04-13 04:55 1.4M
20260413T00Z_MSC_GDPS_WindDir_AGL-40m_LatLon0.15_PT180H.grib2 2026-04-13 04:55 1.4M
20260413T00Z_MSC_GDPS_WindDir_AGL-80m_LatLon0.15_PT180H.grib2 2026-04-13 04:55 1.4M
20260413T00Z_MSC_GDPS_WindDir_IsbL-0001_LatLon0.15_PT180H.grib2 2026-04-13 04:55 633K
20260413T00Z_MSC_GDPS_WindDir_IsbL-0005_LatLon0.15_PT180H.grib2 2026-04-13 04:55 795K
20260413T00Z_MSC_GDPS_WindDir_IsbL-0010_LatLon0.15_PT180H.grib2 2026-04-13 04:55 860K
20260413T00Z_MSC_GDPS_WindDir_IsbL-0020_LatLon0.15_PT180H.grib2 2026-04-13 04:55 923K
20260413T00Z_MSC_GDPS_WindDir_IsbL-0030_LatLon0.15_PT180H.grib2 2026-04-13 04:55 892K
20260413T00Z_MSC_GDPS_WindDir_IsbL-0050_LatLon0.15_PT180H.grib2 2026-04-13 04:55 934K
20260413T00Z_MSC_GDPS_WindDir_IsbL-0100_LatLon0.15_PT180H.grib2 2026-04-13 04:55 1.0M
20260413T00Z_MSC_GDPS_WindDir_IsbL-0150_LatLon0.15_PT180H.grib2 2026-04-13 04:55 1.0M
20260413T00Z_MSC_GDPS_WindDir_IsbL-0175_LatLon0.15_PT180H.grib2 2026-04-13 04:55 1.1M
20260413T00Z_MSC_GDPS_WindDir_IsbL-0200_LatLon0.15_PT180H.grib2 2026-04-13 04:55 1.1M
20260413T00Z_MSC_GDPS_WindDir_IsbL-0225_LatLon0.15_PT180H.grib2 2026-04-13 04:55 1.1M
20260413T00Z_MSC_GDPS_WindDir_IsbL-0250_LatLon0.15_PT180H.grib2 2026-04-13 04:55 1.1M
20260413T00Z_MSC_GDPS_WindDir_IsbL-0275_LatLon0.15_PT180H.grib2 2026-04-13 04:55 1.2M
20260413T00Z_MSC_GDPS_WindDir_IsbL-0300_LatLon0.15_PT180H.grib2 2026-04-13 04:55 1.2M
20260413T00Z_MSC_GDPS_WindDir_IsbL-0350_LatLon0.15_PT180H.grib2 2026-04-13 04:55 1.2M
20260413T00Z_MSC_GDPS_WindDir_IsbL-0400_LatLon0.15_PT180H.grib2 2026-04-13 04:55 1.3M
20260413T00Z_MSC_GDPS_WindDir_IsbL-0450_LatLon0.15_PT180H.grib2 2026-04-13 04:55 1.3M
20260413T00Z_MSC_GDPS_WindDir_IsbL-0500_LatLon0.15_PT180H.grib2 2026-04-13 04:55 1.4M
20260413T00Z_MSC_GDPS_WindDir_IsbL-0550_LatLon0.15_PT180H.grib2 2026-04-13 04:55 1.4M
20260413T00Z_MSC_GDPS_WindDir_IsbL-0600_LatLon0.15_PT180H.grib2 2026-04-13 04:55 1.5M
20260413T00Z_MSC_GDPS_WindDir_IsbL-0650_LatLon0.15_PT180H.grib2 2026-04-13 04:55 1.5M
20260413T00Z_MSC_GDPS_WindDir_IsbL-0700_LatLon0.15_PT180H.grib2 2026-04-13 04:55 1.6M
20260413T00Z_MSC_GDPS_WindDir_IsbL-0750_LatLon0.15_PT180H.grib2 2026-04-13 04:55 1.7M
20260413T00Z_MSC_GDPS_WindDir_IsbL-0800_LatLon0.15_PT180H.grib2 2026-04-13 04:55 1.8M
20260413T00Z_MSC_GDPS_WindDir_IsbL-0850_LatLon0.15_PT180H.grib2 2026-04-13 04:55 1.9M
20260413T00Z_MSC_GDPS_WindDir_IsbL-0875_LatLon0.15_PT180H.grib2 2026-04-13 04:55 2.0M
20260413T00Z_MSC_GDPS_WindDir_IsbL-0900_LatLon0.15_PT180H.grib2 2026-04-13 04:55 2.0M
20260413T00Z_MSC_GDPS_WindDir_IsbL-0925_LatLon0.15_PT180H.grib2 2026-04-13 04:55 2.0M
20260413T00Z_MSC_GDPS_WindDir_IsbL-0950_LatLon0.15_PT180H.grib2 2026-04-13 04:55 2.0M
20260413T00Z_MSC_GDPS_WindDir_IsbL-0970_LatLon0.15_PT180H.grib2 2026-04-13 04:55 2.0M
20260413T00Z_MSC_GDPS_WindDir_IsbL-0985_LatLon0.15_PT180H.grib2 2026-04-13 04:55 2.0M
20260413T00Z_MSC_GDPS_WindDir_IsbL-1000_LatLon0.15_PT180H.grib2 2026-04-13 04:55 2.1M
20260413T00Z_MSC_GDPS_WindDir_IsbL-1015_LatLon0.15_PT180H.grib2 2026-04-13 04:55 2.0M
20260413T00Z_MSC_GDPS_WindGust-Max_AGL-10m_LatLon0.15_PT180H.grib2 2026-04-13 04:55 2.2M
20260413T00Z_MSC_GDPS_WindGust-Min_AGL-10m_LatLon0.15_PT180H.grib2 2026-04-13 04:55 2.2M
20260413T00Z_MSC_GDPS_WindGust_AGL-10m_LatLon0.15_PT180H.grib2 2026-04-13 04:55 2.2M
20260413T00Z_MSC_GDPS_WindSpeed_AGL-10m_LatLon0.15_PT180H.grib2 2026-04-13 04:55 1.1M
20260413T00Z_MSC_GDPS_WindSpeed_AGL-120m_LatLon0.15_PT180H.grib2 2026-04-13 04:55 1.2M
20260413T00Z_MSC_GDPS_WindSpeed_AGL-40m_LatLon0.15_PT180H.grib2 2026-04-13 04:55 1.2M
20260413T00Z_MSC_GDPS_WindSpeed_AGL-80m_LatLon0.15_PT180H.grib2 2026-04-13 04:55 1.2M
20260413T00Z_MSC_GDPS_WindSpeed_IsbL-0001_LatLon0.15_PT180H.grib2 2026-04-13 04:55 630K
20260413T00Z_MSC_GDPS_WindSpeed_IsbL-0005_LatLon0.15_PT180H.grib2 2026-04-13 04:55 608K
20260413T00Z_MSC_GDPS_WindSpeed_IsbL-0010_LatLon0.15_PT180H.grib2 2026-04-13 04:55 627K
20260413T00Z_MSC_GDPS_WindSpeed_IsbL-0020_LatLon0.15_PT180H.grib2 2026-04-13 04:55 857K
20260413T00Z_MSC_GDPS_WindSpeed_IsbL-0030_LatLon0.15_PT180H.grib2 2026-04-13 04:55 857K
20260413T00Z_MSC_GDPS_WindSpeed_IsbL-0050_LatLon0.15_PT180H.grib2 2026-04-13 04:55 1.0M
20260413T00Z_MSC_GDPS_WindSpeed_IsbL-0100_LatLon0.15_PT180H.grib2 2026-04-13 04:55 1.1M
20260413T00Z_MSC_GDPS_WindSpeed_IsbL-0150_LatLon0.15_PT180H.grib2 2026-04-13 04:55 1.0M
20260413T00Z_MSC_GDPS_WindSpeed_IsbL-0175_LatLon0.15_PT180H.grib2 2026-04-13 04:55 1.0M
20260413T00Z_MSC_GDPS_WindSpeed_IsbL-0200_LatLon0.15_PT180H.grib2 2026-04-13 04:55 1.1M
20260413T00Z_MSC_GDPS_WindSpeed_IsbL-0225_LatLon0.15_PT180H.grib2 2026-04-13 04:55 1.1M
20260413T00Z_MSC_GDPS_WindSpeed_IsbL-0250_LatLon0.15_PT180H.grib2 2026-04-13 04:55 1.1M
20260413T00Z_MSC_GDPS_WindSpeed_IsbL-0275_LatLon0.15_PT180H.grib2 2026-04-13 04:55 1.1M
20260413T00Z_MSC_GDPS_WindSpeed_IsbL-0300_LatLon0.15_PT180H.grib2 2026-04-13 04:55 1.1M
20260413T00Z_MSC_GDPS_WindSpeed_IsbL-0350_LatLon0.15_PT180H.grib2 2026-04-13 04:55 1.1M
20260413T00Z_MSC_GDPS_WindSpeed_IsbL-0400_LatLon0.15_PT180H.grib2 2026-04-13 04:55 1.1M
20260413T00Z_MSC_GDPS_WindSpeed_IsbL-0450_LatLon0.15_PT180H.grib2 2026-04-13 04:55 1.1M
20260413T00Z_MSC_GDPS_WindSpeed_IsbL-0500_LatLon0.15_PT180H.grib2 2026-04-13 04:55 1.1M
20260413T00Z_MSC_GDPS_WindSpeed_IsbL-0550_LatLon0.15_PT180H.grib2 2026-04-13 04:55 1.1M
20260413T00Z_MSC_GDPS_WindSpeed_IsbL-0600_LatLon0.15_PT180H.grib2 2026-04-13 04:55 1.1M
20260413T00Z_MSC_GDPS_WindSpeed_IsbL-0650_LatLon0.15_PT180H.grib2 2026-04-13 04:55 1.4M
20260413T00Z_MSC_GDPS_WindSpeed_IsbL-0700_LatLon0.15_PT180H.grib2 2026-04-13 04:55 1.5M
20260413T00Z_MSC_GDPS_WindSpeed_IsbL-0750_LatLon0.15_PT180H.grib2 2026-04-13 04:55 1.5M
20260413T00Z_MSC_GDPS_WindSpeed_IsbL-0800_LatLon0.15_PT180H.grib2 2026-04-13 04:55 1.6M
20260413T00Z_MSC_GDPS_WindSpeed_IsbL-0850_LatLon0.15_PT180H.grib2 2026-04-13 04:55 1.7M
20260413T00Z_MSC_GDPS_WindSpeed_IsbL-0875_LatLon0.15_PT180H.grib2 2026-04-13 04:55 1.8M
20260413T00Z_MSC_GDPS_WindSpeed_IsbL-0900_LatLon0.15_PT180H.grib2 2026-04-13 04:55 1.9M
20260413T00Z_MSC_GDPS_WindSpeed_IsbL-0925_LatLon0.15_PT180H.grib2 2026-04-13 04:55 1.9M
20260413T00Z_MSC_GDPS_WindSpeed_IsbL-0950_LatLon0.15_PT180H.grib2 2026-04-13 04:55 1.9M
20260413T00Z_MSC_GDPS_WindSpeed_IsbL-0970_LatLon0.15_PT180H.grib2 2026-04-13 04:55 1.8M
20260413T00Z_MSC_GDPS_WindSpeed_IsbL-0985_LatLon0.15_PT180H.grib2 2026-04-13 04:55 1.8M
20260413T00Z_MSC_GDPS_WindSpeed_IsbL-1000_LatLon0.15_PT180H.grib2 2026-04-13 04:55 1.8M
20260413T00Z_MSC_GDPS_WindSpeed_IsbL-1015_LatLon0.15_PT180H.grib2 2026-04-13 04:55 1.8M
20260413T00Z_MSC_GDPS_WindU_AGL-10m_LatLon0.15_PT180H.grib2 2026-04-13 04:55 1.3M
20260413T00Z_MSC_GDPS_WindU_AGL-120m_LatLon0.15_PT180H.grib2 2026-04-13 04:55 964K
20260413T00Z_MSC_GDPS_WindU_AGL-40m_LatLon0.15_PT180H.grib2 2026-04-13 04:55 963K
20260413T00Z_MSC_GDPS_WindU_AGL-80m_LatLon0.15_PT180H.grib2 2026-04-13 04:55 966K
20260413T00Z_MSC_GDPS_WindU_IsbL-0001_LatLon0.15_PT180H.grib2 2026-04-13 04:55 634K
20260413T00Z_MSC_GDPS_WindU_IsbL-0005_LatLon0.15_PT180H.grib2 2026-04-13 04:55 688K
20260413T00Z_MSC_GDPS_WindU_IsbL-0010_LatLon0.15_PT180H.grib2 2026-04-13 04:55 703K
20260413T00Z_MSC_GDPS_WindU_IsbL-0020_LatLon0.15_PT180H.grib2 2026-04-13 04:55 657K
20260413T00Z_MSC_GDPS_WindU_IsbL-0030_LatLon0.15_PT180H.grib2 2026-04-13 04:55 736K
20260413T00Z_MSC_GDPS_WindU_IsbL-0050_LatLon0.15_PT180H.grib2 2026-04-13 04:55 702K
20260413T00Z_MSC_GDPS_WindU_IsbL-0100_LatLon0.15_PT180H.grib2 2026-04-13 04:55 920K
20260413T00Z_MSC_GDPS_WindU_IsbL-0150_LatLon0.15_PT180H.grib2 2026-04-13 04:55 1.0M
20260413T00Z_MSC_GDPS_WindU_IsbL-0175_LatLon0.15_PT180H.grib2 2026-04-13 04:55 1.0M
20260413T00Z_MSC_GDPS_WindU_IsbL-0200_LatLon0.15_PT180H.grib2 2026-04-13 04:55 1.1M
20260413T00Z_MSC_GDPS_WindU_IsbL-0225_LatLon0.15_PT180H.grib2 2026-04-13 04:55 857K
20260413T00Z_MSC_GDPS_WindU_IsbL-0250_LatLon0.15_PT180H.grib2 2026-04-13 04:55 857K
20260413T00Z_MSC_GDPS_WindU_IsbL-0275_LatLon0.15_PT180H.grib2 2026-04-13 04:55 884K
20260413T00Z_MSC_GDPS_WindU_IsbL-0300_LatLon0.15_PT180H.grib2 2026-04-13 04:55 875K
20260413T00Z_MSC_GDPS_WindU_IsbL-0350_LatLon0.15_PT180H.grib2 2026-04-13 04:55 890K
20260413T00Z_MSC_GDPS_WindU_IsbL-0400_LatLon0.15_PT180H.grib2 2026-04-13 04:55 890K
20260413T00Z_MSC_GDPS_WindU_IsbL-0450_LatLon0.15_PT180H.grib2 2026-04-13 04:55 1.1M
20260413T00Z_MSC_GDPS_WindU_IsbL-0500_LatLon0.15_PT180H.grib2 2026-04-13 04:55 1.1M
20260413T00Z_MSC_GDPS_WindU_IsbL-0550_LatLon0.15_PT180H.grib2 2026-04-13 04:55 1.1M
20260413T00Z_MSC_GDPS_WindU_IsbL-0600_LatLon0.15_PT180H.grib2 2026-04-13 04:55 1.1M
20260413T00Z_MSC_GDPS_WindU_IsbL-0650_LatLon0.15_PT180H.grib2 2026-04-13 04:55 1.2M
20260413T00Z_MSC_GDPS_WindU_IsbL-0700_LatLon0.15_PT180H.grib2 2026-04-13 04:55 1.2M
20260413T00Z_MSC_GDPS_WindU_IsbL-0750_LatLon0.15_PT180H.grib2 2026-04-13 04:55 1.3M
20260413T00Z_MSC_GDPS_WindU_IsbL-0800_LatLon0.15_PT180H.grib2 2026-04-13 04:55 1.3M
20260413T00Z_MSC_GDPS_WindU_IsbL-0850_LatLon0.15_PT180H.grib2 2026-04-13 04:55 1.4M
20260413T00Z_MSC_GDPS_WindU_IsbL-0875_LatLon0.15_PT180H.grib2 2026-04-13 04:55 1.4M
20260413T00Z_MSC_GDPS_WindU_IsbL-0900_LatLon0.15_PT180H.grib2 2026-04-13 04:55 1.4M
20260413T00Z_MSC_GDPS_WindU_IsbL-0925_LatLon0.15_PT180H.grib2 2026-04-13 04:55 1.4M
20260413T00Z_MSC_GDPS_WindU_IsbL-0950_LatLon0.15_PT180H.grib2 2026-04-13 04:55 1.4M
20260413T00Z_MSC_GDPS_WindU_IsbL-0970_LatLon0.15_PT180H.grib2 2026-04-13 04:55 1.4M
20260413T00Z_MSC_GDPS_WindU_IsbL-0985_LatLon0.15_PT180H.grib2 2026-04-13 04:55 1.4M
20260413T00Z_MSC_GDPS_WindU_IsbL-1000_LatLon0.15_PT180H.grib2 2026-04-13 04:55 1.4M
20260413T00Z_MSC_GDPS_WindU_IsbL-1015_LatLon0.15_PT180H.grib2 2026-04-13 04:55 1.3M
20260413T00Z_MSC_GDPS_WindV_AGL-10m_LatLon0.15_PT180H.grib2 2026-04-13 04:55 1.6M
20260413T00Z_MSC_GDPS_WindV_AGL-120m_LatLon0.15_PT180H.grib2 2026-04-13 04:55 969K
20260413T00Z_MSC_GDPS_WindV_AGL-40m_LatLon0.15_PT180H.grib2 2026-04-13 04:55 965K
20260413T00Z_MSC_GDPS_WindV_AGL-80m_LatLon0.15_PT180H.grib2 2026-04-13 04:55 969K
20260413T00Z_MSC_GDPS_WindV_IsbL-0001_LatLon0.15_PT180H.grib2 2026-04-13 04:55 694K
20260413T00Z_MSC_GDPS_WindV_IsbL-0005_LatLon0.15_PT180H.grib2 2026-04-13 04:55 776K
20260413T00Z_MSC_GDPS_WindV_IsbL-0010_LatLon0.15_PT180H.grib2 2026-04-13 04:55 806K
20260413T00Z_MSC_GDPS_WindV_IsbL-0020_LatLon0.15_PT180H.grib2 2026-04-13 04:55 855K
20260413T00Z_MSC_GDPS_WindV_IsbL-0030_LatLon0.15_PT180H.grib2 2026-04-13 04:55 856K
20260413T00Z_MSC_GDPS_WindV_IsbL-0050_LatLon0.15_PT180H.grib2 2026-04-13 04:55 905K
20260413T00Z_MSC_GDPS_WindV_IsbL-0100_LatLon0.15_PT180H.grib2 2026-04-13 04:55 850K
20260413T00Z_MSC_GDPS_WindV_IsbL-0150_LatLon0.15_PT180H.grib2 2026-04-13 04:55 1.0M
20260413T00Z_MSC_GDPS_WindV_IsbL-0175_LatLon0.15_PT180H.grib2 2026-04-13 04:55 1.0M
20260413T00Z_MSC_GDPS_WindV_IsbL-0200_LatLon0.15_PT180H.grib2 2026-04-13 04:55 848K
20260413T00Z_MSC_GDPS_WindV_IsbL-0225_LatLon0.15_PT180H.grib2 2026-04-13 04:55 854K
20260413T00Z_MSC_GDPS_WindV_IsbL-0250_LatLon0.15_PT180H.grib2 2026-04-13 04:55 912K
20260413T00Z_MSC_GDPS_WindV_IsbL-0275_LatLon0.15_PT180H.grib2 2026-04-13 04:55 938K
20260413T00Z_MSC_GDPS_WindV_IsbL-0300_LatLon0.15_PT180H.grib2 2026-04-13 04:55 929K
20260413T00Z_MSC_GDPS_WindV_IsbL-0350_LatLon0.15_PT180H.grib2 2026-04-13 04:55 943K
20260413T00Z_MSC_GDPS_WindV_IsbL-0400_LatLon0.15_PT180H.grib2 2026-04-13 04:55 885K
20260413T00Z_MSC_GDPS_WindV_IsbL-0450_LatLon0.15_PT180H.grib2 2026-04-13 04:55 882K
20260413T00Z_MSC_GDPS_WindV_IsbL-0500_LatLon0.15_PT180H.grib2 2026-04-13 04:55 886K
20260413T00Z_MSC_GDPS_WindV_IsbL-0550_LatLon0.15_PT180H.grib2 2026-04-13 04:55 1.1M
20260413T00Z_MSC_GDPS_WindV_IsbL-0600_LatLon0.15_PT180H.grib2 2026-04-13 04:55 1.1M
20260413T00Z_MSC_GDPS_WindV_IsbL-0650_LatLon0.15_PT180H.grib2 2026-04-13 04:55 1.2M
20260413T00Z_MSC_GDPS_WindV_IsbL-0700_LatLon0.15_PT180H.grib2 2026-04-13 04:55 1.2M
20260413T00Z_MSC_GDPS_WindV_IsbL-0750_LatLon0.15_PT180H.grib2 2026-04-13 04:55 1.3M
20260413T00Z_MSC_GDPS_WindV_IsbL-0800_LatLon0.15_PT180H.grib2 2026-04-13 04:55 1.3M
20260413T00Z_MSC_GDPS_WindV_IsbL-0850_LatLon0.15_PT180H.grib2 2026-04-13 04:55 1.4M
20260413T00Z_MSC_GDPS_WindV_IsbL-0875_LatLon0.15_PT180H.grib2 2026-04-13 04:55 1.4M
20260413T00Z_MSC_GDPS_WindV_IsbL-0900_LatLon0.15_PT180H.grib2 2026-04-13 04:55 1.4M
20260413T00Z_MSC_GDPS_WindV_IsbL-0925_LatLon0.15_PT180H.grib2 2026-04-13 04:55 1.4M
20260413T00Z_MSC_GDPS_WindV_IsbL-0950_LatLon0.15_PT180H.grib2 2026-04-13 04:55 1.4M
20260413T00Z_MSC_GDPS_WindV_IsbL-0970_LatLon0.15_PT180H.grib2 2026-04-13 04:55 1.4M
20260413T00Z_MSC_GDPS_WindV_IsbL-0985_LatLon0.15_PT180H.grib2 2026-04-13 04:55 1.4M
20260413T00Z_MSC_GDPS_WindV_IsbL-1000_LatLon0.15_PT180H.grib2 2026-04-13 04:55 1.7M
20260413T00Z_MSC_GDPS_WindV_IsbL-1015_LatLon0.15_PT180H.grib2 2026-04-13 04:55 1.6M